Погода в Свирьстрое

Россия / Санкт-Петербург и Ленинградская область     60°47′58″N   33°43′44″E
темп.,
°C
ветер,
м/с
пор.,
м/с
влажн.,
%
обл.,
%
осадки,
мм/ч
давл.,
гПа
погр.,
м
18 сентября, сб
сб1800:00+6св2486100 0.0 1026115
03:00+5всв2385100 0.0 102772
06:00+6св2379100 0.0 102767
09:00+7всв2675100 0.0 1028260
12:00+9в346220 0.0 1028966
15:00+8в355894 0.0 1029980
18:00+7всв366133 0.0 1028700
21:00+2всв298563 0.0 1029208
19 сентября, вс
вс1900:00+1в258864 0.0 103092
03:000в258887 0.0 103095
06:00+1в2583100 0.0 1030103
09:00+5в2764100 0.0 1031422
12:00+8всв465171 0.0 10301441
15:00+10всв464516 0.0 10291550
18:00+7всв48595 0.0 1029621
21:00+4всв412745 0.0 1030523
20 сентября, пн
пн2000:00+2всв3128256 0.0 1031384
03:00+1всв31183100 0.0 1030340
06:00+1всв31190100 0.0 1031346
09:00+4всв41071100 0.0 1031928
12:00+7в585169 0.0 10301375
15:00+9всв574714 0.0 10291458
18:00+5всв59625 0.0 1029967
21:00+2всв3107411 0.0 1029362
21 сентября, вт
вт2100:00+1всв397521 0.0 1029220
03:00+1св3976100 0.0 1028228
06:00+1всв3118383 0.0 1026355
09:00+4всв4107497 0.0 1025538
12:00+8всв465265 0.0 10241055
15:00+9всв465075 0.0 10231227
18:00+7св386367 0.0 1022540
21:00+3св288640 0.0 1022160
22 сентября, ср
ср2200:00+1св279384 0.0 1022126
03:00+2св279569 0.0 1021143
06:00+2св2794100 0.0 1021193
09:00+6всв377832 0.0 1020402
12:00+7св3773100 0.0 1020525
15:00+10св3561100 0.0 1019804
18:00+8св3771100 0.0 1019377
21:00+6ссв2578100 0.0 1018190